Regional Weather Roundup
Issued by NWS

Home | Current Version | Previous Version | Text Only | Print | Product List | Glossary On
Versions: 1 2 3 4 5 6 7 8 9 10 11 12 13 14 15 16 17 18 19 20 21 22 23 24 25 26 27 28 29 30 31 32 33 34 35 36 37 38 39 40 41 42 43 44 45 46 47 48 49 50
000
ASUS43 KLMK 281702
RWRKY
KENTUCKY REGIONAL WEATHER ROUNDUP
NATIONAL WEATHER SERVICE LOUISVILLE KY
100 PM EDT SAT MAY 28 2016

NOTE "FAIR" INDICATES FEW OR NO CLOUDS BELOW 12,000 FEET
WITH NO SIGNIFICANT WEATHER AND/OR OBSTRUCTIONS TO VISIBILITY.

KYZ001>023-026-027-061>063-070>075-281800-
WESTERN AND SOUTH CENTRAL KENTUCKY

CITY           SKY/WX    TMP DP  RH WIND       PRES   REMARKS
PADUCAH        CLOUDY    78  65  63 S10G20    30.02R
HENDERSON      CLOUDY    79  63  57 S17       30.02R
OWENSBORO      CLOUDY    81  69  66 S13       30.05S
HOPKINSVILLE   NOT AVBL
BOWLING GREEN  CLOUDY    82  67  60 S12       30.10S
GLASGOW        NOT AVBL
$$

KYZ024-025-028>034-038-045-046-053-281800-
NORTH CENTRAL KENTUCKY

CITY           SKY/WX    TMP DP  RH WIND       PRES   REMARKS
LOUISVILLE/SDF MOSUNNY   83  66  56 S7        30.08F
LOUISVILLE/LOU SUNNY     81  67  62 SE8       30.09F
FORT KNOX      CLOUDY    82  68  62 S9        30.08F
$$

KYZ035>037-039>044-047>052-055>060-089>105-281800-
NORTHEAST KENTUCKY

CITY           SKY/WX    TMP DP  RH WIND       PRES   REMARKS
LEXINGTON      PTSUNNY   82  66  58 VRB6      30.14F
COVINGTON      CLOUDY    78  67  68 S9        30.12F
FRANKFORT      CLOUDY    77  63  61 S6        30.12S
$$

KYZ054-064>069-076>088-106>120-281800-
SOUTHEAST KENTUCKY

CITY           SKY/WX    TMP DP  RH WIND       PRES   REMARKS
JACKSON        PTSUNNY   79  66  64 CALM      30.19S
LONDON         PTSUNNY   79  63  57 S6        30.17F
SOMERSET       NOT AVBL
MIDDLESBORO    NOT AVBL
MONTICELLO     MOSUNNY   83  65  54 VRB6      30.16F
$$




USA.gov is the U.S. government's official web portal to all federal, state and local government web resources and services.